Station: Clare  

  Atmospheric Gas Attenuation - ITU Rec 676-11   ----------------- dB/100km -----------------
Date Time Temp RH % AH g/m3 Dew Point Wind Direction Speed kph Gust kph Barometer mB Rainfall Since 9am 24GHz 47GHz 76GHz 122GHz 134GHz 241GHz
05/05 08:50 11.3 97 9.9 10.8 0 0 1023.8 13 22.5 29.3 47.1 123.9 120.9 416.6
05/05 08:40 11.1 97 9.77 10.6 4 6 1023.7 13 22.2 29.1 46.7 122.6 119.3 411.1
05/05 08:30 11 97 9.71 10.5 6 6 1023.5 13 22.1 29.0 46.5 122.1 118.6 408.5
05/05 08:20 10.9 97 9.65 10.4 2 6 1023.5 13 22.0 29.0 46.3 121.5 117.9 406.0
05/05 08:10 10.6 97 9.47 10.1 0 0 1023.4 12.8 21.6 28.7 45.7 119.9 115.7 398.5
05/05 08:00 10.5 97 9.41 10 0 0 1023.3 12.8 21.5 28.7 45.4 119.3 115.0 396.0
05/05 07:50 10.4 97 9.35 9.9 0 0 1023.3 12.8 21.4 28.6 45.2 118.8 114.3 393.5
05/05 07:40 10.4 97 9.35 9.9 0 0 1023.2 12.8 21.4 28.6 45.2 118.8 114.3 393.5
05/05 07:30 10.1 97 9.17 9.6 0 0 1023.1 12.8 21.0 28.4 44.6 117.1 112.1 386.0
05/05 07:20 9.9 97 9.06 9.4 0 0 1023 12.8 20.8 28.2 44.3 116.1 110.9 381.4
05/05 07:10 9.8 97 9 9.3 0 0 1022.8 12.8 20.6 28.2 44.0 115.6 110.1 378.9
05/05 07:00 9.6 97 8.89 9.1 0 0 1022.5 12.8 20.4 28.0 43.7 114.6 108.8 374.3
05/05 06:50 9.5 97 8.83 9 0 0 1022.5 12.8 20.3 27.9 43.5 114.0 108.1 371.8
05/05 06:40 9.3 97 8.72 8.8 0 0 1022.3 12.6 20.1 27.8 43.1 113.0 106.8 367.2
05/05 06:30 9.1 97 8.61 8.6 0 0 1022.1 12.6 19.8 27.7 42.7 112.0 105.5 362.6
05/05 06:20 9 97 8.55 8.5 0 0 1022 12.6 19.7 27.6 42.5 111.5 104.8 360.1
05/05 06:10 8.9 97 8.5 8.5 0 0 1021.9 12.6 19.6 27.5 42.3 111.0 104.2 358.0
05/05 06:00 8.9 97 8.5 8.5 0 0 1021.8 12.6 19.6 27.5 42.3 111.0 104.2 358.0
05/05 05:50 8.7 97 8.39 8.3 0 0 1021.9 12.6 19.4 27.4 42.0 110.0 102.9 353.5
05/05 05:40 8.6 97 8.34 8.2 0 0 1021.8 12.6 19.3 27.4 41.8 109.6 102.3 351.4
05/05 05:30 8.6 97 8.34 8.2 0 0 1021.7 12.6 19.3 27.3 41.8 109.6 102.3 351.4
05/05 05:20 8.3 97 8.18 7.9 0 0 1021.7 12.6 18.9 27.2 41.3 108.2 100.5 344.9
05/05 05:10 8.3 97 8.18 7.9 0 0 1021.7 12.6 18.9 27.2 41.3 108.2 100.5 344.9
05/05 05:00 8.2 97 8.13 7.8 0 0 1021.6 12.6 18.8 27.1 41.1 107.7 99.9 342.8
05/05 04:50 8 97 8.02 7.6 0 0 1021.7 12.6 18.6 27.0 40.7 106.8 98.6 338.3
05/05 04:40 8 97 8.02 7.6 0 0 1021.6 12.6 18.6 27.0 40.7 106.8 98.6 338.3
05/05 04:30 7.7 97 7.87 7.3 0 0 1021.4 12.6 18.3 26.8 40.2 105.4 96.8 332.1
05/05 04:20 7.5 97 7.77 7.1 0 0 1021.5 12.6 18.1 26.7 39.9 104.6 95.7 328.1
05/05 04:10 7.5 97 7.77 7.1 0 0 1021.4 12.6 18.1 26.7 39.9 104.6 95.7 328.0
05/05 04:00 7.4 97 7.72 7 0 6 1021.3 12.6 18.0 26.6 39.7 104.1 95.1 326.0
05/05 03:50 6.9 96 7.39 6.3 0 0 1021.3 12.6 17.3 26.2 38.6 101.0 91.1 311.9
05/05 03:40 6.8 96 7.35 6.2 0 0 1021.3 12.6 17.2 26.2 38.5 100.7 90.7 310.3
05/05 03:30 6.7 96 7.3 6.1 0 0 1021.2 12.6 17.1 26.1 38.3 100.3 90.1 308.2
05/05 03:20 7.1 96 7.49 6.5 0 0 1021.3 12.6 17.5 26.3 38.9 101.9 92.2 315.9
05/05 03:10 7.2 96 7.54 6.6 0 0 1021.3 12.6 17.6 26.4 39.1 102.3 92.8 318.0
05/05 03:00 7.2 96 7.54 6.6 0 0 1021.3 12.6 17.6 26.4 39.1 102.3 92.8 318.0
05/05 02:50 7.4 96 7.64 6.8 0 0 1021.4 12.6 17.8 26.5 39.4 103.2 94.0 322.1
05/05 02:40 7.5 96 7.69 6.9 0 0 1021.5 12.6 17.9 26.6 39.6 103.7 94.6 324.1
05/05 02:30 7.8 96 7.84 7.2 0 0 1021.4 12.6 18.2 26.7 40.1 105.0 96.3 330.2
05/05 02:20 7.9 96 7.89 7.3 0 0 1021.5 12.6 18.3 26.8 40.2 105.4 96.9 332.3
05/05 02:10 8.1 96 7.99 7.5 0 0 1021.6 12.6 18.5 26.9 40.6 106.3 98.0 336.3
05/05 02:00 8.4 96 8.15 7.8 0 0 1021.4 12.6 18.9 27.1 41.1 107.7 99.9 342.8
05/05 01:50 8.5 96 8.2 7.9 0 0 1021.5 12.6 19.0 27.1 41.2 108.1 100.5 344.9
05/05 01:40 8.4 96 8.15 7.8 0 0 1021.5 12.6 18.9 27.1 41.1 107.7 99.9 342.9
05/05 01:30 8.3 95 8.01 7.5 0 0 1021.5 12.6 18.6 26.9 40.5 106.2 98.1 336.4
05/05 01:20 8.7 96 8.31 8.1 0 0 1021.5 12.6 19.2 27.3 41.6 109.1 101.8 349.4
05/05 01:10 8.7 95 8.22 7.9 0 0 1021.5 12.6 19.0 27.1 41.2 108.1 100.5 345.0
05/05 01:00 8.9 95 8.32 8.1 0 0 1021.4 12.6 19.2 27.2 41.5 108.9 101.6 349.0
05/05 00:50 9.2 95 8.49 8.4 0 0 1021.5 12.6 19.6 27.4 42.1 110.4 103.6 356.0
05/05 00:40 9.3 95 8.54 8.5 0 2 1021.4 12.6 19.7 27.5 42.3 110.9 104.2 358.0
05/05 00:30 9.8 95 8.82 9 2 7 1021.3 12.6 20.3 27.8 43.2 113.3 107.4 369.5
05/05 00:20 10.1 95 8.99 9.3 0 0 1021.3 12.6 20.6 28.0 43.8 114.8 109.4 376.4
05/05 00:10 10.3 95 9.1 9.5 0 0 1021.3 12.6 20.8 28.1 44.1 115.8 110.7 380.9
05/05 00:00 10.2 95 9.04 9.4 0 0 1021.3 12.6 20.7 28.0 43.9 115.3 110.0 378.4
04/05 23:50 10.2 95 9.04 9.4 0 0 1021.3 12.6 20.7 28.0 43.9 115.3 110.0 378.4
04/05 23:40 10.1 95 8.99 9.3 0 0 1021.3 12.6 20.6 28.0 43.8 114.8 109.4 376.4
04/05 23:30 10.1 95 8.99 9.3 0 0 1021.1 12.6 20.6 28.0 43.7 114.8 109.4 376.4
04/05 23:20 10.1 94 8.89 9.2 0 0 1021.2 12.6 20.4 27.8 43.3 113.7 108.0 371.5
04/05 23:10 10 94 8.83 9.1 0 0 1021.2 12.6 20.3 27.7 43.1 113.1 107.3 369.0
04/05 23:00 10.1 93 8.8 9 0 0 1021 12.6 20.2 27.6 42.9 112.6 106.7 367.0
04/05 22:50 10.4 93 8.97 9.3 0 0 1021.1 12.6 20.5 27.8 43.5 114.2 108.7 373.9
04/05 22:40 10.5 93 9.02 9.4 4 6 1021 12.6 20.6 27.9 43.6 114.6 109.2 375.9
04/05 22:30 10.5 93 9.02 9.4 6 9 1020.9 12.6 20.6 27.9 43.6 114.6 109.2 375.9
04/05 22:20 10.7 93 9.14 9.6 2 4 1021 12.6 20.9 28.0 44.0 115.6 110.7 380.8
04/05 22:10 10.8 93 9.19 9.7 4 6 1021.2 12.6 21.0 28.1 44.2 116.1 111.2 382.9
04/05 22:00 10.8 94 9.29 9.9 6 7 1021.1 12.6 21.2 28.3 44.6 117.2 112.6 387.8
04/05 21:50 10.8 94 9.29 9.9 2 6 1021.2 12.6 21.2 28.3 44.6 117.2 112.7 387.8
04/05 21:40 10.7 95 9.33 9.9 6 6 1021.1 12.6 21.3 28.4 44.9 117.8 113.4 390.3
04/05 21:30 10.6 95 9.27 9.8 0 0 1021 12.6 21.2 28.3 44.7 117.3 112.6 387.8
04/05 21:20 10.5 94 9.12 9.6 0 0 1021 12.6 20.9 28.1 44.1 115.7 110.7 380.8
04/05 21:10 10.4 94 9.06 9.5 0 0 1020.9 12.6 20.7 28.0 43.9 115.2 109.9 378.3
04/05 21:00 10.4 92 8.87 9.2 0 0 1020.7 12.6 20.3 27.7 43.0 113.0 107.2 368.9
04/05 20:50 10.5 92 8.92 9.3 0 0 1020.6 12.6 20.4 27.7 43.2 113.4 107.8 370.8
04/05 20:40 10.7 93 9.14 9.6 4 6 1020.4 12.6 20.9 28.0 44.0 115.6 110.6 380.7
04/05 20:30 10.6 94 9.18 9.7 7 11 1020.2 12.6 21.0 28.1 44.2 116.2 111.3 383.1
04/05 20:20 10.2 95 9.04 9.4 7 9 1020 12.6 20.7 28.0 43.9 115.1 109.9 378.0
04/05 20:10 9.8 95 8.82 9 7 9 1020 12.6 20.3 27.7 43.1 113.2 107.3 369.1
04/05 20:00 9.5 94 8.56 8.6 0 6 1020 12.6 19.7 27.4 42.2 110.6 104.1 357.7
04/05 19:50 9.5 93 8.47 8.4 0 0 1019.9 12.6 19.5 27.2 41.8 109.6 102.8 353.2
04/05 19:40 9.7 92 8.48 8.5 0 0 1019.8 12.6 19.5 27.2 41.7 109.4 102.7 352.8
04/05 19:30 9.8 91 8.45 8.4 0 2 1019.5 12.6 19.5 27.1 41.5 108.9 102.1 350.8
04/05 19:20 10.3 92 8.81 9.1 2 6 1019.5 12.6 20.2 27.5 42.8 112.3 106.4 366.1
04/05 19:10 10.4 90 8.68 8.8 0 2 1019.3 12.6 19.9 27.3 42.2 110.7 104.5 359.2
04/05 19:00 10.6 89 8.69 8.9 4 7 1018.9 12.6 19.9 27.2 42.1 110.4 104.3 358.6
04/05 18:50 10.7 89 8.74 9 6 6 1018.9 12.6 20.0 27.3 42.2 110.9 104.9 360.6
04/05 18:40 11.1 88 8.87 9.2 6 6 1018.7 12.6 20.3 27.4 42.6 111.7 106.1 365.0
04/05 18:30 11.4 87 8.93 9.3 7 13 1018.5 12.6 20.4 27.4 42.6 112.0 106.5 366.4
04/05 18:20 11.6 86 8.94 9.3 7 9 1018.4 12.6 20.4 27.3 42.6 111.8 106.3 366.0
04/05 18:10 11.7 86 9 9.4 7 9 1018.3 12.6 20.5 27.4 42.8 112.3 107.0 368.4
04/05 18:00 12 86 9.17 9.7 9 15 1018 12.6 20.9 27.6 43.3 113.7 108.9 375.1
04/05 17:50 12.2 87 9.39 10.1 9 15 1017.9 12.6 21.4 27.9 44.1 115.9 111.7 384.8
04/05 17:40 12.4 86 9.4 10.1 11 13 1017.8 12.6 21.4 27.8 44.0 115.7 111.5 384.2
04/05 17:30 12.7 84 9.35 10.1 11 24 1017.6 12.6 21.2 27.6 43.7 114.7 110.4 380.3
04/05 17:20 13.1 81 9.24 9.9 9 13 1017.6 12.6 21.0 27.3 43.0 112.9 108.3 373.0
04/05 17:10 13.3 84 9.71 10.7 13 19 1017.5 12.6 22.0 28.1 44.8 117.8 114.5 394.7
04/05 17:00 13.4 84 9.77 10.8 13 24 1017.3 12.6 22.1 28.1 45.0 118.3 115.2 397.0
04/05 16:50 13.7 83 9.83 10.9 15 20 1017.3 12.6 22.2 28.1 45.1 118.5 115.5 398.4
04/05 16:40 13.9 86 10.31 11.6 13 20 1017.3 12.6 23.2 28.9 47.0 123.7 121.9 420.8
04/05 16:30 13.5 89 10.41 11.7 13 24 1017.1 12.6 23.5 29.2 47.7 125.4 124.0 427.8
04/05 16:20 14 92 11.1 12.7 6 7 1017.1 12.6 24.9 30.2 50.4 132.6 133.0 459.4

Last Refresh: 05-May-2026 08:57:11

Bureau of Meteorology